I2476 LICB-LICR

Flight info

Callsign I2476
Flight time N/A
Altitude 20000
Route VP019 VP022 CC601 VP030 VP031 VP042
Aircraft A320/M-S/7123

Departure

Time N/A
Airport Comiso Airport (LICB)

Arrival

Time 2026-04-27 16:24
Airport Reggio Calabria Airport (LICR)
Time Latitude Longitude Altitude Speed Heading
2026-04-27 16:07 37.13029 14.73037 0 ft 308 kts 36°
2026-04-27 16:07 37.14511 14.74824 0 ft 320 kts 44°
2026-04-27 16:07 37.15937 14.76909 0 ft 329 kts 48°
2026-04-27 16:07 37.17297 14.79134 0 ft 337 kts 51°
2026-04-27 16:08 37.18614 14.81459 0 ft 343 kts 52°
2026-04-27 16:08 37.19945 14.83937 0 ft 349 kts 54°
2026-04-27 16:08 37.21265 14.86496 0 ft 353 kts 55°
2026-04-27 16:08 37.22545 14.89039 0 ft 356 kts 55°
2026-04-27 16:09 37.23832 14.91638 0 ft 359 kts 56°
2026-04-27 16:09 37.26451 14.96749 0 ft 360 kts 46°
2026-04-27 16:09 37.28151 14.98922 0 ft 358 kts 38°
2026-04-27 16:10 37.31953 15.02702 0 ft 356 kts 31°
2026-04-27 16:10 37.35847 15.05937 0 ft 352 kts 26°
2026-04-27 16:11 37.37887 15.07331 0 ft 354 kts 22°
2026-04-27 16:11 37.42473 15.09946 0 ft 378 kts 19°
2026-04-27 16:12 37.47238 15.12374 0 ft 404 kts 18°
2026-04-27 16:12 37.49754 15.13608 0 ft 416 kts 17°
2026-04-27 16:12 37.55031 15.16609 0 ft 416 kts 28°
2026-04-27 16:13 37.57222 15.18471 0 ft 403 kts 33°
2026-04-27 16:13 37.61223 15.22856 0 ft 381 kts 41°
2026-04-27 16:13 37.63057 15.25216 0 ft 371 kts 43°
2026-04-27 16:14 37.66518 15.29860 0 ft 355 kts 44°
2026-04-27 16:14 37.69491 15.34654 0 ft 347 kts 63°
2026-04-27 16:15 37.71174 15.40059 0 ft 339 kts 68°
2026-04-27 16:15 37.72721 15.45584 0 ft 331 kts 69°
2026-04-27 16:16 37.74196 15.50976 0 ft 294 kts 69°
2026-04-27 16:16 37.75300 15.55150 0 ft 234 kts 69°
2026-04-27 16:17 37.77191 15.58548 0 ft 238 kts 21°
2026-04-27 16:17 37.80004 15.59790 0 ft 221 kts 351°
2026-04-27 16:18 37.82837 15.59551 0 ft 203 kts 347°
2026-04-27 16:18 37.85355 15.59301 0 ft 192 kts 347°
2026-04-27 16:19 37.86593 15.59216 0 ft 190 kts 354°
2026-04-27 16:19 37.87855 15.59346 0 ft 192 kts 360°
2026-04-27 16:20 37.91370 15.60458 0 ft 173 kts
2026-04-27 16:20 37.92544 15.60951 0 ft 193 kts 10°
2026-04-27 16:20 37.94833 15.61941 0 ft 172 kts 12°
2026-04-27 16:21 37.95900 15.62419 0 ft 164 kts 11°
2026-04-27 16:21 37.98734 15.63957 0 ft 153 kts
2026-04-27 16:22 37.99617 15.64346 0 ft 148 kts
2026-04-27 16:22 38.01455 15.65250 0 ft 151 kts 19°
2026-04-27 16:22 38.02291 15.65803 0 ft 144 kts 18°
2026-04-27 16:23 38.03144 15.66373 0 ft 144 kts 18°
2026-04-27 16:23 38.04712 15.66621 0 ft 130 kts 338°
2026-04-27 16:23 38.05429 15.66286 0 ft 137 kts 328°
2026-04-27 16:24 38.06125 15.65847 0 ft 120 kts 324°
2026-04-27 16:24 38.07125 15.65171 0 ft 40 kts 325°
2026-04-27 16:25 38.07318 15.65170 0 ft 12 kts 60°